Regional Weather Roundup
Issued by NWS

Home | Current Version | Previous Version | Graphics & Text | Print | Product List | Glossary Off
Versions: 1 2 3 4 5 6 7 8 9 10 11 12 13 14 15 16 17 18 19 20 21 22 23 24 25 26 27 28 29 30 31 32 33 34 35 36 37 38 39 40 41 42 43 44 45 46 47 48 49 50

000
ASUS44 KMEG 310510
RWRTN
TENNESSEE HOURLY STATE WEATHER ROUNDUP
NATIONAL WEATHER SERVICE MEMPHIS TN
1200 AM CDT THU JUL 31 2014

TNZ002-004-019-021-049-052-054-088>092-310600-
WEST TENNESSEE

CITY           SKY/WX    TMP DP  RH WIND       PRES   REMARKS
MEMPHIS INTL   LGT RAIN  72  64  76 N6        30.07R
NWS MEMPHIS      N/A     71 N/A N/A MISG        N/A
JACKSON        CLOUDY    69  65  86 CALM      30.07S
DYERSBURG      CLOUDY    70  57  64 CALM      30.08S
UNION CITY     CLEAR     64  64 100 CALM      30.07R
PARIS          PTCLDY    61  59  93 CALM      30.09S
LEXINGTON      CLEAR     64  63  94 CALM      30.07F
SAVANNAH       CLOUDY    66  66 100 CALM      30.08S
$$

TNZ008-025-027-028-033-062-065-066-310600-
NORTH MIDDLE TENNESSEE

CITY           SKY/WX    TMP DP  RH WIND       PRES   REMARKS
NASHVILLE      MOCLDY    66  59  78 CALM      30.10R
DICKSON        PTCLDY    63  55  77 CALM      30.09S
PORTLAND       PTCLDY    61  57  88 CALM      30.09S
CLARKSVILLE    PTCLDY    62  59  90 CALM      30.09R
LEBANON        PTCLDY    62  58  87 CALM      30.08S
SMYRNA         PTCLDY    63  61  93 CALM      30.10S
MURFREESBORO   PTCLDY    67  64  90 CALM      30.09R
COOKEVILLE     CLEAR     61  61 100 CALM      30.11R
CROSSVILLE     CLOUDY    64  58  80 CALM      30.14S
$$

TNZ061-075-076-078-094-096-097-310600-
SOUTH MIDDLE TENNESSEE

CITY           SKY/WX    TMP DP  RH WIND       PRES   REMARKS
LEWISBURG      PTCLDY    62  58  87 CALM      30.09S
FAYETTEVILLE   CLEAR     64  59  82 NE9       30.10S
TULLAHOMA      CLEAR     61  57  88 CALM      30.12S
WINCHESTER     CLEAR     61  57  88 CALM      30.11S
MCMINNVILLE    CLEAR     63  63 100 CALM      30.11S
COLUMBIA       CLEAR     64  63  94 CALM      30.08S
SHELBYVILLE    CLEAR     63  63 100 E5        30.11R
$$

TNZ017-018-042-046-047-310600-
NORTHEAST TENNESSEE

CITY           SKY/WX    TMP DP  RH WIND       PRES   REMARKS
TRI CITIES     MOCLDY    59  55  87 CALM      30.14R
ELIZABETHTON   CLEAR     57  54  88 CALM        N/A
$$

TNZ012-013-036-069-073-074-310600-
CENTRAL EAST TENNESSEE

CITY           SKY/WX    TMP DP  RH WIND       PRES   REMARKS
KNOXVILLE      MOCLDY    63  58  83 E3        30.10
OAK RIDGE      MOCLDY    64  61  90 CALM      30.12S
GATLINBURG     CLEAR     61  57  88 CALM      30.11S
MORRISTOWN     CLEAR     61  57  88 CALM      30.13S
$$

TNZ083-085-099-310600-
SOUTHEAST TENNESSEE

CITY           SKY/WX    TMP DP  RH WIND       PRES   REMARKS
CHATTANOOGA    MOCLDY    67  59  75 CALM      30.09R
$$

SKY/WX REPORTED AS FAIR MEANS FEW OR NO CLOUDS BELOW
12 THOUSAND FEET.



USA.gov is the U.S. government's official web portal to all federal, state and local government web resources and services.